Location: Nairn
(57.5833°N, 3.8667°W)
Time: 02:00:58
(UTC+00:00)

COSMOS 2428 - Pass Details

Date: 07 August 2020
Orbit: 844 x 859 km, 70.9° (Epoch: 18 September)

Event Time Altitude Azimuth Distance (km) Brightness Sun altitude
Rises 02:01:51 0° 319° (NW) 3,435 6.2 -13.2°
Reaches altitude 10° 02:05:01 10° 302° (WNW) 2,497 5.2 -13.0°
Maximum altitude 02:08:49 19° 260° (W) 1,956 4.3 -12.8°
Enters shadow 02:11:10 15° 231° (SW) 2,175 4.3 -12.7°
